Disclaimer

Please do not use the information listed here in-flight or in-navigation, as they are not provided to us by the airports but are provided by volunteers, so they might be outdated.

Search


Regions


Airport information page

Radio informations:
Tower (TWR) - 122.55 MHz
PTD - 131.975 MHz
100 ARW COMD POS - 313.55 MHz
PMSV METRO - 284.425 MHz
AMC AIRLIFT AMCC - 131.975 MHz
Ground (GND) - 121.675 MHz
Automatic Terminal Information Service (ATIS) - 375.5 MHz
LAKENHEATH APP - 136.5 MHz

Airport informations:
Latitude: 52° 21' 42.96" N
Longitude: 000° 29' 11.06" E
Elevation: 33 feet - 10 meters
Operating hours: 24 hour operations
Operating agency: US Air Force
Timezone: UTC 0(+1DT) - Last Sunday in March to last Sunday in October
Fuel: N/A

Runway information:
11/29 - 9221 x 200 feet< - >2811 x 61 meters

Recent METARs:
EGUN 212126Z AUTO 18008KT 9999 SCT032 OVC055 03/03 A2988 RMK AO2 SLP122 $
EGUN 212126Z AUTO 18008KT 9999 SCT032 OVC055 03/03 A2988 RMK AO2 SLP122 $
EGUN 212156Z AUTO 17011KT 9999 OVC050 03/03 A2985 RMK AO2 PRESFR SLP112 T00310031 .

Airport on the map: